Wind_Speed
10 10 11 10 9 9 11 11 10 11 13 12 11 11 10 10 9 10 9 8 7 5 5 4 2 2 2 3 4 9 21 28 27 28 24 17 23 20 16 19 22 16 7 5 5 3 3 2 2 3 2 2 2 1 1 3 2 2 1 2 3 3 3 3 4 3 4 6 4 2 0 5 3 3 4 3 5 7 8 8 7 9 10 10 14 18 18 15
10 11 11 10 10 10 12 11 10 11 12 11 11 12 12 10 7 7 8 7 5 3 2 3 3 3 2 0 0 1 11 20 24 25 21 21 21 16 16 21 21 15 9 7 6 4 2 2 1 1 0 1 2 1 0 2 4 2 0 3 3 2 2 3 5 5 4 6 7 3 1 3 4 2 4 4 3 6 5 6 6 10 11 12 15 16 15 14
9 11 11 11 10 10 11 11 11 11 11 10 11 12 13 12 7 6 7 6 6 6 5 2 2 3 5 4 4 4 2 10 18 18 22 24 19 16 19 22 21 17 11 9 8 5 4 4 2 1 1 2 3 2 1 3 3 1 1 4 2 3 2 3 5 5 4 6 8 5 1 2 2 2 3 2 2 6 3 5 6 8 12 12 13 15 15 14
8 10 11 11 10 9 9 10 11 10 9 9 9 10 13 14 10 7 8 10 12 13 14 14 12 8 1 6 7 5 6 2 10 14 24 24 17 17 19 20 22 18 12 9 8 7 5 5 4 3 1 2 2 1 2 4 3 0 1 4 3 2 2 4 5 5 4 4 6 5 3 2 2 1 2 2 3 4 3 3 2 8 15 13 14 15 15 15
8 10 11 11 9 8 9 10 10 9 9 8 8 9 11 14 12 8 9 14 15 13 13 14 15 15 13 1 9 7 5 0 7 17 25 22 15 16 17 18 21 18 13 9 7 7 5 4 3 3 2 2 2 1 2 4 3 1 1 3 3 2 2 6 6 4 3 3 4 4 4 3 1 1 1 3 5 2 3 4 2 10 15 14 15 15 16 17
9 10 10 10 9 9 9 9 9 8 7 7 8 8 10 14 13 8 10 13 11 7 7 7 6 8 14 13 9 6 2 2 9 21 25 18 13 16 16 16 19 17 13 10 7 5 5 3 1 1 2 2 2 2 2 2 2 1 2 2 2 1 3 6 6 4 3 3 4 4 3 2 1 0 3 4 5 7 7 3 8 15 16 16 17 16 16 17
9 10 10 9 9 9 8 8 8 7 6 7 8 8 10 13 15 11 9 8 5 4 5 4 5 3 3 12 20 16 8 5 13 23 22 15 12 16 15 14 17 15 13 14 9 4 4 5 4 1 1 2 1 2 2 1 0 1 1 2 1 0 2 4 4 4 2 3 4 3 3 2 4 2 3 7 8 8 7 11 16 19 19 18 18 17 17 17
8 9 9 8 8 9 8 7 6 5 6 7 8 8 9 12 16 16 14 11 9 10 8 3 2 2 2 3 11 13 8 7 18 23 19 12 12 16 13 12 15 14 15 15 9 3 3 4 4 1 0 3 0 1 1 1 1 2 2 2 1 2 2 3 2 4 2 2 2 3 3 2 3 3 6 8 8 9 12 16 18 19 19 17 17 17 17 17
7 7 7 8 8 8 7 6 5 5 6 7 7 7 8 9 13 14 14 12 12 14 13 6 1 0 4 4 3 7 7 12 18 21 17 11 12 13 11 12 14 14 14 14 10 5 2 2 2 1 2 4 0 1 2 3 2 3 3 2 1 1 3 3 3 7 4 2 3 5 6 4 3 3 6 7 7 10 13 15 16 17 16 15 14 16 16 17
6 6 7 8 7 7 7 6 5 5 5 6 6 6 7 7 8 9 9 11 10 12 15 15 12 11 10 4 5 7 8 14 17 19 16 11 10 10 12 14 13 13 11 12 13 9 4 3 2 1 3 4 1 1 3 4 2 3 3 1 2 2 1 3 4 7 4 1 4 7 8 4 2 1 4 6 7 10 13 14 14 14 15 13 13 15 16 16
6 6 7 7 7 7 6 6 5 5 5 5 6 6 6 6 7 7 7 9 9 9 11 12 15 23 25 16 10 8 9 15 17 18 16 11 11 12 13 13 12 12 9 10 12 9 7 4 3 1 1 2 1 2 3 3 1 1 3 0 1 4 1 3 7 7 5 2 5 7 4 3 3 3 3 6 6 9 13 14 13 13 14 13 13 14 14 15
6 6 7 7 7 7 6 6 5 5 5 5 6 6 6 5 5 5 5 5 6 7 9 10 7 9 19 20 11 6 10 16 18 18 17 13 11 12 13 13 15 14 10 10 10 8 8 4 3 5 3 2 1 1 2 2 2 1 5 1 2 7 1 4 7 9 9 4 7 8 3 2 5 5 4 8 7 9 12 13 13 13 12 12 12 12 13 14
7 7 7 7 7 7 6 5 5 6 6 7 8 7 7 5 4 3 2 2 5 6 8 13 13 7 10 10 8 10 12 18 21 18 17 16 10 8 11 13 16 16 13 13 12 10 10 8 10 10 3 3 2 1 1 0 1 1 4 1 3 8 1 4 6 9 10 5 8 10 6 2 6 7 6 8 7 10 12 12 11 11 11 10 10 10 12 14
7 7 8 8 8 7 5 5 6 7 7 8 8 8 7 5 5 6 5 3 3 5 6 8 11 13 13 5 3 14 17 21 26 22 20 19 13 9 10 8 10 16 15 14 13 12 11 10 13 10 3 4 1 1 2 1 1 2 3 1 4 6 3 7 7 8 9 3 6 10 8 4 7 7 5 7 7 10 11 11 11 10 10 9 10 10 10 13
6 7 8 8 7 6 5 6 8 8 9 8 7 7 7 5 6 8 10 9 5 4 5 6 5 7 9 5 2 12 20 24 29 29 24 20 16 14 13 6 5 12 17 15 11 11 10 10 10 6 2 1 1 1 1 2 2 4 4 3 6 6 7 9 3 4 7 4 7 7 8 7 6 6 2 7 7 9 10 10 10 10 10 9 9 8 8 10
6 7 8 8 7 6 7 9 9 8 6 5 4 4 4 4 5 7 10 11 11 8 5 7 8 7 6 3 3 10 17 21 26 30 25 18 14 15 16 9 5 5 10 14 13 10 11 11 7 3 3 3 5 5 2 1 3 4 5 7 8 8 10 9 3 5 3 5 7 3 7 9 4 6 2 7 9 9 10 10 10 10 10 8 7 7 7 7
7 8 8 7 6 7 11 12 12 13 14 13 12 10 8 5 3 3 1 4 9 10 9 10 8 7 6 4 4 7 11 14 23 31 28 18 11 16 19 10 6 3 4 8 14 10 8 7 1 1 4 6 6 6 2 5 7 5 7 6 6 8 9 11 6 3 3 5 9 6 7 7 5 6 4 6 10 10 10 10 11 9 8 7 6 6 6 6
8 7 8 6 6 12 18 21 23 24 23 19 18 17 19 17 12 9 7 4 2 3 8 14 9 5 5 7 5 8 11 12 21 30 30 21 10 15 20 11 7 5 3 2 11 11 6 3 1 2 6 7 7 8 7 6 8 8 10 7 7 9 7 11 12 7 7 6 8 10 9 7 6 6 5 5 9 10 10 10 9 8 8 7 6 5 6 6
8 7 7 7 11 20 24 25 23 19 12 7 6 6 7 12 18 24 27 19 8 3 4 8 7 3 2 6 8 11 8 8 19 29 33 26 12 9 15 11 5 6 3 1 7 9 4 1 3 5 7 8 8 9 7 4 6 9 9 6 7 10 7 11 13 7 7 7 9 10 11 8 5 5 5 5 9 9 10 10 8 7 7 5 5 6 5 6
9 9 9 10 16 21 21 18 12 5 2 4 6 5 1 1 6 12 20 19 9 5 4 2 3 3 2 3 11 13 5 4 15 27 35 28 11 6 11 8 2 7 7 2 4 5 2 4 7 6 7 7 6 4 3 2 5 7 8 6 7 9 9 13 12 4 4 7 10 10 10 6 4 5 4 6 8 9 10 9 8 6 6 5 6 7 7 6
10 11 12 14 17 16 12 9 4 4 6 8 7 2 1 0 3 3 2 7 6 6 7 4 3 4 3 3 11 13 2 1 10 23 34 26 9 5 8 8 5 8 7 2 1 2 1 7 7 5 5 3 3 1 1 3 5 5 6 8 8 7 11 13 8 3 4 7 9 9 10 3 5 4 5 6 7 8 8 8 8 7 5 4 6 7 7 7
10 11 13 14 13 10 6 5 6 6 5 3 3 6 4 4 10 10 5 5 5 6 6 4 4 5 1 3 12 10 1 4 10 21 33 24 11 6 5 6 7 6 5 2 1 1 5 8 6 5 2 1 1 0 3 5 6 6 6 7 7 9 13 8 3 5 6 6 7 7 8 2 7 6 6 6 6 7 6 8 8 6 5 6 7 7 7 8
10 10 10 10 9 6 3 3 3 1 4 9 12 11 9 11 14 10 5 6 3 3 2 2 5 5 3 6 13 11 7 8 7 16 28 20 9 6 3 6 6 3 5 6 5 5 6 7 6 2 1 2 1 2 6 7 6 6 7 7 8 11 13 8 7 14 11 7 7 7 6 1 7 7 7 7 7 9 9 9 8 6 6 7 7 6 7 8
8 9 8 7 7 5 2 3 5 8 11 13 15 14 13 13 11 7 4 3 2 1 1 1 3 4 4 5 12 8 8 6 3 11 22 17 6 2 2 4 3 4 6 5 6 10 7 4 3 1 2 3 3 5 9 9 7 6 6 8 11 13 15 13 12 16 12 4 2 8 8 0 5 7 7 8 8 10 9 8 7 6 6 7 7 7 7 8
6 6 6 5 5 5 4 5 7 11 12 12 14 13 12 9 6 4 2 1 2 1 0 1 2 5 4 6 12 5 5 4 3 7 15 15 7 2 2 0 2 7 5 3 2 7 6 2 2 1 1 5 7 8 9 8 8 4 6 8 12 16 17 16 14 13 9 2 3 6 9 5 1 6 9 8 8 9 7 5 5 6 7 8 8 8 8 9
3 3 3 3 3 3 3 3 7 10 8 8 11 10 8 5 3 2 1 1 3 2 2 1 1 6 6 8 12 2 3 3 3 8 14 13 6 2 1 1 1 5 3 1 2 3 4 1 1 1 3 7 9 8 7 7 8 5 5 8 12 16 16 14 14 8 6 7 4 4 7 9 8 2 9 9 8 8 5 4 6 7 6 7 8 8 9 11
1 1 1 2 3 3 2 2 8 8 3 5 10 8 5 4 4 2 1 1 3 2 4 4 3 6 7 10 11 1 2 6 4 8 15 14 7 3 2 4 1 3 2 1 1 2 3 3 3 4 5 7 8 8 7 7 6 6 10 13 13 16 16 12 10 5 5 7 3 4 6 10 11 6 9 9 8 6 3 4 7 8 8 9 9 10 12 13
2 1 2 3 5 5 3 4 10 6 2 8 11 6 4 2 2 0 1 2 2 1 2 2 2 5 5 8 12 6 2 7 3 8 16 14 8 2 3 6 1 2 3 2 3 3 2 5 6 6 6 7 7 8 8 6 4 7 12 14 13 14 13 8 5 5 5 5 4 6 8 9 10 6 9 7 6 4 4 7 8 9 10 9 10 12 14 15
4 2 2 3 4 5 5 7 7 4 6 12 10 4 2 1 0 0 1 2 1 1 1 1 2 4 5 4 8 7 3 4 3 7 13 11 11 5 4 4 1 1 3 3 5 3 1 3 3 4 5 6 7 9 8 5 5 9 12 12 11 9 7 4 3 5 5 4 8 13 12 10 10 4 5 3 5 4 6 7 8 9 9 8 11 13 15 16
5 3 1 2 4 5 7 6 6 7 9 10 7 4 3 1 1 1 2 0 1 1 0 2 2 3 6 3 4 5 4 4 2 5 5 3 8 8 4 1 1 1 2 4 5 3 1 0 1 1 4 4 7 7 4 2 5 11 11 10 8 4 3 2 1 3 5 5 9 16 16 13 8 3 4 3 4 2 5 7 8 9 9 10 12 14 17 17
7 5 1 4 5 6 5 5 7 9 9 8 7 4 2 1 1 2 2 1 1 1 1 3 2 2 5 5 4 5 3 3 4 6 5 2 7 11 6 2 2 1 2 3 5 4 3 2 0 1 2 3 6 5 1 3 5 8 9 12 9 4 4 3 1 1 4 7 11 17 17 12 8 4 4 4 2 0 4 6 8 10 11 12 13 16 17 16
11 9 5 3 5 5 5 7 8 9 9 8 7 3 1 0 1 2 1 1 1 2 2 2 2 3 4 2 3 5 3 2 4 5 5 4 7 9 9 7 4 3 4 5 6 4 3 3 2 1 1 3 6 4 0 2 3 9 11 12 10 8 7 6 7 6 5 8 13 17 14 8 8 3 6 5 1 1 2 4 6 9 13 15 16 17 16 15
13 9 7 5 5 6 9 10 8 9 8 7 4 2 2 2 1 1 1 2 1 2 2 1 2 2 2 1 4 5 1 2 5 4 2 2 4 6 9 10 8 5 3 4 6 6 2 4 3 1 2 3 7 7 5 4 7 10 10 10 8 7 7 7 9 10 8 10 13 13 7 7 10 2 8 4 0 1 3 4 5 8 13 16 17 18 16 16
13 8 8 10 10 10 11 9 8 8 6 4 2 1 3 2 1 1 1 1 1 2 1 1 2 1 1 2 3 4 0 2 3 4 3 2 3 5 6 9 11 5 2 1 2 4 4 1 4 5 2 5 8 6 4 4 4 5 6 6 6 4 3 6 8 9 10 13 12 8 4 9 13 1 8 4 1 3 5 4 6 10 13 16 16 17 17 16
10 11 10 12 12 10 8 6 7 6 3 3 2 2 3 1 2 2 1 0 0 1 0 0 1 1 2 2 1 1 0 1 2 3 5 4 3 4 4 6 10 6 2 1 1 2 3 1 3 4 0 5 8 2 2 4 1 2 3 4 7 6 4 6 7 7 9 11 9 5 4 9 8 4 7 3 3 4 5 6 11 14 16 18 17 17 16 15
5 10 12 13 12 9 7 5 4 3 2 2 3 3 1 1 1 1 1 1 1 1 0 0 1 2 1 1 1 1 0 0 0 1 3 4 2 3 2 2 6 6 3 2 1 2 3 2 4 4 3 5 7 2 1 3 3 4 4 6 7 6 4 5 7 7 7 9 8 6 9 11 6 2 4 3 6 10 11 11 14 17 20 20 17 16 16 16
2 6 10 14 13 8 6 4 3 3 2 2 4 3 0 0 1 0 1 1 0 0 0 1 1 3 1 1 2 3 3 1 1 2 1 1 1 2 2 0 1 3 3 2 0 1 3 5 3 2 2 3 2 1 5 4 5 5 5 7 7 4 3 2 6 7 9 9 6 9 14 13 9 5 3 6 11 14 14 14 18 21 22 21 18 17 17 17
3 4 7 14 14 7 5 4 3 3 4 4 4 3 0 0 1 0 1 1 0 0 1 1 1 1 1 1 1 4 5 3 3 3 1 1 1 1 1 1 1 1 3 3 1 2 2 5 1 2 0 1 2 2 3 4 4 4 4 5 4 2 3 4 4 6 11 11 9 12 14 10 9 8 9 11 13 15 16 17 21 24 22 20 18 18 19 17
2 2 3 12 13 7 4 3 4 3 3 3 3 2 1 1 1 0 1 0 0 1 1 1 0 0 1 0 0 1 3 3 3 2 1 2 2 2 0 1 0 1 2 2 1 1 1 3 1 3 2 3 1 1 2 2 3 3 3 2 2 2 4 3 1 3 8 11 11 14 14 8 6 7 8 11 12 15 18 19 21 23 21 19 17 17 18 15
1 1 1 12 11 6 6 6 5 5 3 2 1 2 1 2 2 1 1 1 0 0 0 2 1 1 1 0 1 1 1 2 2 2 2 2 1 2 2 1 1 1 2 1 0 0 1 2 3 2 2 3 0 1 2 2 2 2 3 3 3 1 2 2 1 0 3 8 10 13 12 8 7 5 5 10 12 14 19 21 20 20 20 19 17 17 16 14
2 1 2 12 8 2 4 8 7 4 3 3 2 3 2 2 3 2 0 1 1 1 0 2 1 1 2 0 0 1 0 1 1 1 1 1 1 1 1 1 1 0 0 1 1 1 1 1 4 6 5 3 2 2 0 4 4 3 4 2 3 4 3 4 3 1 0 4 6 8 11 10 7 4 5 9 11 14 19 21 20 19 20 19 17 17 15 13
2 2 4 12 5 4 5 6 3 2 2 2 2 3 2 2 2 1 1 0 0 1 0 2 2 2 1 0 1 2 1 1 1 0 1 0 1 2 2 2 1 1 1 1 1 1 1 1 3 5 6 4 4 4 2 7 9 6 4 3 1 2 4 4 6 5 4 5 5 6 10 8 4 5 7 9 10 14 18 20 19 18 19 18 17 17 14 13
2 2 5 11 2 5 6 4 0 3 3 1 0 2 2 2 2 1 1 0 1 1 1 1 1 1 1 0 1 2 2 1 1 0 1 1 1 2 2 2 2 2 2 1 2 1 1 1 3 6 5 1 5 4 3 6 7 4 5 4 2 3 2 2 4 5 5 6 6 8 9 6 4 9 12 12 13 16 17 18 19 18 16 16 17 15 13 14
1 2 4 10 2 4 2 3 2 2 2 2 2 3 2 2 2 1 1 0 1 1 2 2 1 1 1 1 1 2 1 1 1 0 0 1 1 3 1 2 2 1 0 1 1 1 1 0 3 6 4 1 1 1 1 3 3 2 3 4 3 3 1 2 3 1 3 6 9 10 9 8 8 12 15 15 17 18 18 18 18 17 16 16 15 13 13 15
2 2 1 9 11 5 2 1 3 4 3 3 4 3 2 3 2 1 0 1 0 0 1 2 1 1 2 1 1 2 1 1 1 0 1 1 1 1 0 2 2 1 1 2 2 1 1 2 2 4 6 5 5 5 5 6 6 3 2 4 3 2 2 1 3 3 5 9 11 9 10 13 16 17 18 18 18 20 20 19 18 17 16 15 14 13 13 15
1 1 1 4 9 7 3 1 2 5 4 4 4 2 1 3 1 1 0 1 1 0 1 2 1 1 2 2 2 2 1 1 1 1 1 1 1 1 0 1 1 1 1 1 2 1 0 1 1 1 2 5 7 10 11 11 9 9 6 1 3 3 2 1 3 5 8 12 10 8 11 18 22 21 20 19 19 20 19 20 19 17 16 16 13 12 14 15
1 2 1 1 2 3 3 2 2 3 2 2 2 2 2 2 2 1 1 1 1 1 1 2 1 2 1 2 3 2 1 1 1 1 1 1 0 1 0 1 1 2 2 1 1 1 0 2 1 3 7 9 11 15 15 13 11 12 10 3 4 5 4 3 3 7 9 9 8 10 15 19 21 21 21 20 19 19 18 18 18 17 16 15 12 13 15 16
1 2 0 1 1 1 2 2 2 4 3 2 1 2 3 3 2 2 1 1 1 1 1 1 1 1 1 2 2 2 1 0 1 1 1 1 1 1 1 1 0 0 1 1 1 1 1 2 1 1 7 11 13 16 16 12 10 10 9 7 6 7 7 6 7 10 8 7 11 18 21 20 19 20 19 18 18 18 17 17 17 16 16 14 12 14 16 17
2 3 1 2 1 2 1 1 2 5 5 3 2 2 3 5 4 1 0 1 1 1 1 2 2 1 1 1 1 2 2 2 1 2 2 2 2 1 2 1 1 1 1 1 1 1 2 1 1 1 8 12 13 14 12 9 9 8 9 9 8 7 8 8 10 11 11 13 17 21 22 19 16 15 16 17 16 15 14 15 16 17 16 13 13 15 17 17
1 3 2 2 3 2 2 1 1 3 3 2 1 2 2 4 5 2 1 1 2 3 2 2 2 2 1 2 2 1 2 2 1 2 4 4 2 2 2 1 2 2 1 1 1 0 1 1 2 1 5 9 8 7 6 7 8 9 9 8 8 8 9 10 11 11 11 14 16 18 18 15 10 10 14 16 15 14 15 17 17 16 15 14 14 16 17 17
3 4 5 4 3 1 2 1 1 1 2 1 1 3 3 4 5 5 2 0 0 2 2 2 5 3 1 2 4 3 1 1 0 1 4 3 0 1 1 1 3 3 1 1 1 0 1 1 1 1 5 5 3 3 6 4 4 6 8 9 10 9 8 8 9 9 10 12 14 14 12 11 10 12 15 15 15 16 17 17 17 15 14 14 14 17 18 17
5 5 4 4 3 1 1 1 0 0 2 1 2 3 2 2 4 4 3 1 0 0 0 1 4 3 1 2 4 2 1 2 1 1 1 1 2 2 2 2 2 2 2 2 0 0 1 2 1 1 4 4 0 5 8 2 2 3 4 7 11 10 9 10 10 10 11 10 10 9 8 11 13 14 16 17 17 17 16 15 15 13 12 12 14 17 17 16
Wind_Direction
77 69 66 66 72 92 109 105 93 81 77 79 77 74 73 78 93 107 120 130 135 139 147 141 113 112 76 65 68 62 58 60 55 44 44 14 351 351 346 352 358 3 16 35 65 96 130 130 88 93 145 131 15 9 86 29 359 275 261 306 301 309 327 346 324 329 327 313 348 51 339 297 281 113 145 147 83 95 86 67 69 68 70 83 103 117 122 124
75 68 66 69 78 101 117 112 94 81 80 85 82 76 69 72 89 109 120 130 133 128 176 222 264 252 240 44 217 65 52 51 48 38 24 2 356 356 354 0 4 14 26 37 51 48 84 86 60 38 320 90 15 3 99 8 339 319 14 296 300 346 350 13 340 324 314 314 332 353 34 298 303 96 163 210 124 128 104 83 94 91 93 103 111 115 115 116
72 70 71 77 88 108 121 113 93 82 86 91 87 76 65 64 79 115 120 120 113 89 75 74 260 242 235 233 246 236 275 31 40 21 359 357 358 359 1 3 6 14 22 26 37 41 62 68 63 26 6 49 27 14 23 1 340 2 310 291 350 10 339 34 345 320 320 317 318 334 7 276 327 87 179 240 169 183 181 132 136 128 127 124 117 113 111 109
68 71 78 85 98 115 116 104 92 87 89 91 87 76 62 57 65 105 116 114 112 93 76 70 71 66 31 228 224 210 230 11 37 350 344 353 354 2 5 3 5 10 12 15 28 45 63 56 45 37 27 72 50 24 25 12 346 91 302 318 27 351 308 39 0 330 329 310 311 327 318 295 48 95 218 278 250 214 165 118 150 154 142 130 120 113 110 105
73 76 83 91 107 117 108 99 93 88 88 87 85 77 64 54 58 96 119 125 124 99 79 69 66 55 42 87 204 198 220 269 14 339 342 349 353 4 2 2 6 7 9 14 21 31 44 41 42 45 44 57 42 32 46 24 338 187 68 357 20 330 337 19 5 346 331 301 296 309 320 332 90 121 342 300 278 316 28 2 36 135 132 123 118 113 108 101
80 82 85 96 113 117 107 98 89 87 89 87 84 76 69 56 55 94 132 137 130 89 67 53 39 38 44 64 111 132 148 90 350 336 341 346 357 2 358 2 6 7 15 31 34 28 33 26 43 45 50 57 35 44 35 16 309 272 75 47 30 351 358 7 1 357 319 289 315 326 339 343 270 203 45 22 343 352 358 26 100 114 115 115 114 109 104 96
77 81 84 96 110 113 105 97 91 92 92 89 85 79 77 63 56 85 129 139 123 32 359 337 337 325 31 68 75 74 76 52 343 335 342 351 0 357 358 6 7 9 23 36 35 34 38 34 65 70 69 82 54 55 20 344 247 307 67 66 52 126 9 8 355 358 328 307 339 324 303 304 313 318 73 44 24 21 52 94 102 105 109 109 105 101 97 91
68 77 84 95 107 110 106 101 100 97 92 93 88 83 85 73 69 82 97 93 72 43 20 329 311 326 215 115 70 66 60 4 339 340 346 356 5 357 1 12 13 21 32 38 30 24 42 37 71 218 91 74 325 90 12 262 115 36 41 28 55 142 11 4 355 18 32 351 339 271 296 1 360 30 70 42 41 68 86 98 102 105 105 100 97 93 91 87
73 82 92 102 110 112 114 112 110 100 94 96 91 88 91 86 80 79 80 72 58 51 45 49 103 167 146 152 95 70 31 345 339 350 355 1 11 4 13 22 21 29 38 43 35 29 38 40 71 266 97 88 340 68 331 304 60 34 5 352 33 75 7 360 16 23 22 17 355 305 328 36 78 64 67 53 67 93 98 102 104 104 99 93 92 87 85 83
93 100 106 112 117 117 122 119 114 107 101 99 90 91 96 92 80 69 68 64 58 59 59 67 80 87 100 98 76 74 5 342 352 4 7 10 14 10 25 30 26 32 40 45 39 33 32 58 73 41 90 88 63 24 337 334 30 24 355 353 18 356 18 16 20 21 1 43 21 334 337 33 102 3 58 78 95 106 105 105 103 100 96 92 90 84 81 78
107 110 111 116 121 122 126 122 120 112 100 91 83 89 97 90 77 70 71 65 57 58 59 68 74 73 72 64 65 63 355 350 5 13 15 15 18 21 30 32 30 34 39 44 42 41 50 69 92 117 59 48 68 43 37 5 334 15 344 247 4 320 175 32 11 13 348 33 24 335 325 73 87 11 62 112 116 115 112 108 105 101 98 94 90 84 78 74
107 103 106 114 119 122 125 121 121 103 90 84 81 83 84 85 81 69 66 60 50 51 50 50 49 62 64 59 57 33 359 5 11 17 22 21 24 33 43 43 40 40 46 53 43 43 64 72 64 64 15 296 246 34 78 7 298 96 353 3 21 335 27 59 17 7 343 355 2 325 267 104 63 37 93 129 119 116 117 112 108 103 100 94 89 83 76 72
97 95 100 109 113 117 120 114 106 95 91 86 79 74 73 79 77 54 57 68 57 61 67 60 56 68 70 63 48 27 17 17 16 18 21 25 31 39 46 46 45 46 55 67 57 57 72 65 65 78 34 336 40 13 156 319 285 96 356 2 351 337 25 56 15 354 344 355 356 333 302 357 64 69 112 130 125 128 123 115 112 104 101 95 88 84 76 70
91 92 97 103 106 110 113 108 104 100 96 90 78 68 69 74 73 65 71 92 81 71 77 65 61 68 71 97 67 28 22 24 24 18 12 18 29 26 20 26 45 49 56 66 61 64 74 67 74 95 74 16 62 229 207 151 28 6 331 297 350 337 337 6 8 350 351 11 349 338 315 336 77 84 124 142 142 141 129 119 117 106 102 96 89 84 76 70
87 94 99 100 98 96 104 108 110 109 101 91 73 60 67 85 92 80 70 68 73 87 80 58 58 78 75 98 84 17 17 24 22 15 8 13 23 15 3 10 63 57 57 59 57 61 65 66 66 66 37 335 245 284 216 165 74 35 354 343 352 338 325 345 47 36 4 340 326 337 318 326 78 73 127 162 158 145 131 122 117 107 104 97 90 85 77 75
89 99 100 97 86 79 99 111 113 110 96 79 58 49 77 107 116 91 71 63 61 76 89 49 50 88 94 65 9 4 12 16 11 11 12 14 18 9 9 35 67 63 68 53 46 54 56 64 71 41 22 17 356 339 260 195 48 52 20 353 339 339 333 339 64 102 36 327 321 333 313 319 62 56 48 168 165 145 132 125 120 112 106 99 91 84 76 73
94 102 105 98 82 91 106 109 105 97 89 85 78 75 82 95 189 212 37 72 67 70 70 41 43 95 81 22 2 1 355 356 4 9 12 15 19 18 21 35 21 13 132 43 30 31 33 45 85 144 43 34 6 336 345 19 359 2 6 350 332 333 328 332 355 65 38 331 318 310 304 327 51 47 34 164 165 147 138 131 126 119 110 101 90 78 69 60
92 106 113 103 100 114 113 108 106 102 97 92 82 78 76 73 79 75 53 85 104 50 51 24 21 112 64 20 2 331 324 339 3 8 10 13 18 25 27 29 2 360 166 52 20 16 10 26 17 66 41 27 19 16 39 22 340 337 341 339 333 325 320 328 332 346 1 326 305 317 316 338 44 47 44 144 161 148 141 136 130 123 110 100 82 63 57 46
88 108 118 116 123 123 118 114 113 109 99 79 53 48 65 66 68 63 54 60 64 33 46 2 3 111 52 7 333 320 321 351 9 9 8 7 6 23 26 26 23 35 65 41 23 15 357 38 39 38 27 17 23 33 49 20 322 319 315 311 315 315 323 328 321 339 7 326 311 331 325 330 27 48 58 127 155 147 141 136 130 122 107 93 68 47 35 24
91 108 120 127 131 128 124 126 125 117 34 345 332 330 260 107 58 48 39 49 61 49 73 14 8 73 58 353 335 344 3 28 21 13 6 2 350 360 14 1 18 52 43 1 18 11 334 50 48 29 12 7 20 34 42 341 293 298 302 306 309 311 326 327 323 345 31 334 318 327 323 328 49 51 76 127 150 146 144 137 126 118 101 77 48 30 14 5
94 111 124 129 133 135 140 153 183 264 301 307 302 325 144 249 74 117 24 52 58 44 67 65 42 59 46 353 348 352 343 42 29 13 7 5 348 341 1 354 23 39 23 308 272 281 19 53 44 11 356 352 16 38 290 308 294 302 320 325 324 330 329 318 310 332 6 336 317 326 327 341 89 64 97 130 146 144 146 140 125 111 93 56 25 12 1 351
96 116 132 137 144 155 181 227 263 274 297 332 96 98 100 108 115 132 147 101 56 31 69 79 67 66 51 29 6 351 337 15 14 7 4 5 16 25 356 12 52 41 356 332 262 323 55 52 25 357 358 198 136 213 300 318 319 331 343 337 337 343 335 316 276 326 339 318 313 335 329 347 102 96 105 118 127 121 123 127 117 95 62 23 5 358 345 340
98 119 139 152 165 180 215 271 278 192 125 113 108 104 108 113 123 131 112 103 92 19 44 56 62 44 26 44 13 7 52 31 351 359 359 359 26 41 360 25 53 52 12 11 31 52 50 32 14 360 262 242 217 343 337 331 335 356 5 353 343 343 337 324 321 326 318 289 303 318 297 248 116 118 108 106 111 103 106 109 95 63 33 2 345 337 327 329
98 115 134 149 156 152 111 80 106 118 118 116 109 113 124 122 127 129 99 90 100 98 37 53 94 43 34 26 4 20 77 54 334 350 358 3 13 330 15 31 6 38 36 6 50 76 71 22 357 257 249 317 341 5 5 354 348 11 33 8 340 333 328 314 314 320 309 271 308 317 302 268 143 153 124 114 115 107 109 104 78 37 7 343 332 330 323 319
96 110 121 137 141 129 107 94 114 120 116 114 113 121 130 130 142 135 114 90 65 112 123 127 122 37 21 353 358 16 130 83 41 355 359 9 359 296 51 49 334 24 23 325 69 80 66 42 306 288 347 12 8 11 14 355 338 8 59 17 332 320 316 312 319 324 321 348 55 338 328 355 182 164 135 130 124 111 108 89 49 7 350 338 336 335 330 322
100 118 125 144 153 149 143 121 133 133 117 114 126 134 132 129 143 121 138 114 55 6 352 22 34 15 3 346 348 315 162 45 20 10 12 12 353 240 54 356 7 22 357 305 95 78 47 49 221 2 14 19 16 14 23 356 335 358 25 349 320 312 310 317 326 327 330 335 350 4 347 335 328 74 124 133 123 111 101 56 10 351 344 334 334 334 329 324
77 168 184 182 190 190 208 183 161 153 124 142 148 138 126 126 116 96 270 56 49 348 357 357 336 6 6 352 344 260 114 342 331 23 13 7 354 245 20 17 19 30 359 238 69 57 12 359 27 20 11 23 14 1 12 359 333 351 352 333 316 310 312 322 322 302 321 322 313 64 16 326 327 36 113 128 115 112 89 20 353 348 345 335 336 333 328 327
24 297 255 229 218 223 235 175 165 163 139 160 160 145 134 139 123 350 274 78 34 335 31 3 353 22 13 2 10 61 80 324 342 12 350 3 15 296 52 38 2 354 344 309 33 43 358 10 23 8 11 28 5 341 345 345 334 341 333 318 304 302 307 313 305 288 309 320 331 12 6 325 326 39 114 127 102 90 25 2 349 345 342 339 337 329 329 330
13 336 286 237 220 213 193 168 162 158 153 159 158 150 150 125 159 256 87 117 350 13 113 330 13 15 341 348 26 48 36 353 37 343 335 6 21 15 70 43 314 314 352 31 44 41 21 24 2 348 21 19 338 324 332 352 348 322 308 301 295 292 298 298 306 313 307 321 346 352 354 332 325 26 107 111 71 43 355 351 347 342 338 336 336 332 331 328
16 3 282 197 172 161 160 150 139 137 144 156 155 136 130 100 137 121 67 119 340 14 168 358 3 330 337 11 48 28 23 27 360 324 338 14 6 26 95 241 288 93 54 62 59 60 78 341 264 337 34 3 309 304 335 6 307 299 306 322 316 292 314 302 216 323 323 333 351 351 346 329 319 22 73 66 75 31 342 349 345 339 335 333 335 334 329 326
31 33 81 187 172 168 163 124 124 137 136 143 141 118 115 70 61 108 86 63 2 343 30 32 9 342 12 42 41 11 23 30 346 348 13 20 2 23 44 342 326 57 41 46 45 62 120 169 107 35 28 337 286 270 186 198 280 309 338 353 350 344 343 318 247 8 335 330 347 350 342 324 318 353 92 107 129 254 338 343 334 334 335 332 331 331 328 328
32 33 43 154 176 174 152 132 130 133 129 133 130 91 95 254 30 90 34 316 336 4 46 31 358 23 25 56 32 359 341 11 16 20 17 20 27 31 38 24 346 332 25 22 359 8 127 131 55 156 158 339 318 324 83 198 335 359 5 2 359 356 351 343 342 343 326 325 337 340 329 316 337 11 140 147 184 244 305 305 317 332 335 330 328 329 330 331
34 33 46 87 129 121 115 127 131 127 128 127 113 50 82 98 72 114 292 311 10 19 40 337 341 3 316 314 26 353 316 9 8 24 17 6 49 61 62 40 9 350 10 9 346 347 73 116 66 69 154 1 359 11 11 348 6 17 13 3 359 356 347 336 334 331 322 319 329 341 326 305 334 20 156 162 149 210 253 263 297 324 331 330 328 329 331 331
45 51 69 79 91 99 102 114 121 121 124 113 86 39 68 80 105 158 276 304 13 4 44 351 331 2 19 50 6 320 350 73 5 12 9 359 36 45 51 33 19 7 309 2 15 355 357 51 44 31 359 3 21 32 360 328 2 34 18 353 354 6 339 314 319 323 317 309 322 8 30 323 332 354 163 169 187 221 236 262 310 319 328 330 328 331 332 332
53 56 70 71 70 79 89 107 121 118 105 81 64 58 79 113 205 188 211 245 350 320 55 24 318 20 65 59 19 307 334 63 55 41 27 33 46 26 13 9 9 357 309 2 28 336 319 262 68 56 336 13 23 37 276 294 319 36 354 345 352 342 302 278 273 265 280 299 319 10 4 333 344 132 158 188 255 289 302 321 328 327 332 333 331 333 334 336
63 52 56 54 49 56 70 94 119 109 82 84 70 59 90 172 218 168 127 38 48 12 91 159 359 33 54 344 34 65 311 311 71 69 58 63 72 42 15 348 1 355 351 20 10 342 321 302 46 65 121 53 26 11 340 336 344 357 347 346 337 316 299 306 288 263 282 312 330 339 327 331 344 138 160 248 304 333 338 333 334 334 335 335 334 334 336 338
125 65 51 37 31 42 58 72 111 106 81 75 79 81 130 238 29 76 126 59 50 341 152 157 7 12 3 310 352 352 331 319 343 348 87 106 87 67 38 347 22 352 349 357 159 59 313 297 353 57 127 87 55 75 83 49 351 357 359 339 314 233 164 358 322 317 329 325 324 332 327 327 336 340 341 330 331 340 342 336 335 335 336 337 335 336 338 337
166 106 57 23 17 29 45 61 97 102 83 65 84 111 147 63 49 21 153 122 210 244 63 98 32 342 265 279 359 332 323 338 3 8 78 71 68 107 341 359 87 7 340 313 263 112 274 284 337 117 313 27 144 165 97 76 37 48 43 353 340 316 336 348 336 334 339 327 316 330 329 325 333 331 332 342 342 340 340 339 336 335 337 337 335 337 338 335
163 138 55 7 9 25 34 73 95 74 80 78 99 132 110 98 88 63 182 98 195 170 62 86 347 6 182 262 349 306 322 358 358 356 54 13 34 136 268 333 16 40 1 311 300 111 222 286 359 148 245 303 167 222 312 49 75 92 90 38 41 346 306 315 314 324 335 324 314 324 324 320 334 329 335 349 349 343 340 338 335 334 336 336 336 338 337 335
117 142 27 356 8 51 57 72 73 44 63 86 114 124 88 123 123 78 305 310 245 185 82 157 175 127 149 240 305 282 359 22 351 355 34 7 31 122 112 217 263 20 16 332 356 285 221 255 294 272 253 274 119 55 347 52 53 9 24 24 21 8 229 231 242 167 341 321 317 320 312 307 330 345 358 358 354 347 341 336 333 333 333 335 338 337 333 333
60 138 4 351 358 109 66 58 53 33 80 86 95 111 86 139 134 99 335 312 322 295 325 141 122 93 139 156 191 200 335 57 32 11 41 36 44 70 98 169 241 19 141 216 170 265 280 220 280 307 315 315 54 72 44 105 91 22 14 30 16 14 358 328 327 108 52 296 288 293 291 298 325 1 14 6 358 347 340 336 333 332 333 335 337 335 333 335
55 139 347 350 10 128 72 60 42 17 96 80 72 102 84 122 122 93 145 205 285 270 103 105 75 84 146 162 128 179 189 126 104 52 175 61 29 34 66 114 197 220 238 283 85 48 305 248 269 289 291 314 60 80 88 109 116 102 71 93 125 42 35 351 322 321 313 278 262 273 281 288 338 11 359 1 358 343 338 337 332 331 334 335 336 335 335 337
61 155 1 359 59 130 67 74 63 21 73 119 76 68 47 93 117 116 177 184 253 223 115 100 74 69 151 191 163 182 192 181 211 123 177 209 101 74 85 143 185 204 219 196 107 142 221 214 273 281 268 183 105 102 116 135 146 122 75 72 82 76 59 302 292 320 311 281 292 303 286 281 340 351 343 346 345 338 336 336 333 332 334 335 335 335 336 337
68 173 6 8 11 195 69 95 149 83 97 155 115 83 49 63 79 84 188 162 250 200 121 105 110 85 105 129 156 165 171 195 216 186 138 205 131 77 93 205 230 240 183 34 49 182 212 287 307 317 330 34 110 66 177 208 263 340 77 83 85 99 107 236 222 242 281 289 315 315 291 290 320 333 336 339 337 334 333 334 335 335 335 335 335 335 336 335
86 151 319 15 35 72 92 107 141 131 144 138 103 95 84 81 56 316 228 118 321 277 105 100 99 110 116 129 136 127 96 310 248 119 81 197 168 69 83 236 277 314 71 28 359 262 265 331 343 2 2 343 320 312 307 305 313 323 132 127 116 117 110 220 250 269 300 312 315 294 279 299 314 324 335 339 336 333 331 333 336 337 336 334 333 334 335 335
124 88 260 3 33 57 68 351 79 116 145 139 107 97 97 98 113 277 299 153 153 81 67 87 113 134 136 169 173 153 160 13 41 116 175 199 174 90 71 242 305 302 208 61 8 309 205 275 270 222 262 282 284 284 293 306 304 293 289 218 141 145 142 211 273 293 311 313 298 261 278 304 312 322 334 338 336 332 331 334 335 335 334 333 331 331 332 334
124 97 65 337 31 54 66 38 44 91 140 152 122 137 139 117 132 172 210 250 155 133 51 75 146 190 173 177 176 163 163 38 45 125 163 217 231 106 213 253 305 272 240 226 352 34 185 247 234 212 233 251 270 278 286 295 288 284 291 273 166 167 170 177 243 277 300 312 299 292 306 308 308 319 330 333 333 332 331 332 332 330 330 329 328 327 329 333
36 136 266 330 39 79 74 67 74 89 91 84 90 121 137 143 161 170 154 99 100 198 203 136 187 212 177 186 177 149 141 156 233 202 163 218 253 133 146 212 258 254 237 270 21 51 276 268 160 207 255 261 267 272 276 280 274 271 272 256 217 192 185 196 231 253 270 280 283 297 307 305 302 315 326 329 330 330 326 324 326 327 328 328 327 327 331 334
58 112 61 347 67 111 40 38 105 103 84 71 102 150 167 164 168 181 153 132 130 177 222 212 193 160 159 191 167 145 173 191 224 228 184 172 202 175 154 181 157 156 233 226 60 70 237 234 124 253 280 276 269 265 265 263 261 259 258 252 230 210 216 232 244 257 260 255 266 287 297 296 299 314 322 324 326 324 320 322 325 327 330 330 327 329 333 334
171 152 141 62 85 89 21 19 105 103 78 55 113 156 174 168 168 177 213 207 152 151 200 211 159 129 139 174 182 211 222 209 248 238 182 168 197 205 194 189 149 136 213 190 100 10 267 341 89 129 286 283 266 248 239 241 256 267 265 247 222 224 242 247 250 261 263 259 272 289 294 292 304 321 319 319 322 322 324 328 328 329 332 331 328 331 333 332
96 128 143 118 91 10 342 51 36 85 119 168 154 152 180 189 172 155 142 324 299 161 184 162 138 126 85 174 214 246 249 189 240 210 178 174 184 172 170 187 164 154 149 157 159 252 256 303 98 94 303 285 206 219 261 250 244 267 263 238 218 222 240 246 249 260 265 274 288 293 293 300 319 326 318 318 324 326 327 328 327 327 328 327 329 332 332 330
100 101 124 101 89 331 330 87 52 115 136 115 114 145 182 184 166 150 123 125 247 79 24 137 141 146 164 204 224 261 58 119 90 50 152 138 66 84 95 109 147 161 154 149 156 345 182 272 280 12 297 280 295 312 300 268 165 265 251 216 209 214 244 266 273 271 264 268 283 286 283 299 314 320 319 320 326 328 325 322 322 322 319 321 328 331 330 329
Height
832 832 832 832 832 832 832 832 833 832 831 831 831 831 830 830 830 830 830 830 830 830 830 830 830 830 830 829 829 828 827 826 825 824 826 833 835 832 831 828 825 823 821 820 819 819 819 819 819 818 818 819 822 823 825 827 827 825 826 832 832 831 832 831 830 832 832 829 828 833 837 834 833 839 844 843 844 848 851 854 855 855 857 857 857 859 861 863
833 832 832 832 832 833 833 833 833 832 831 832 832 832 831 831 830 830 830 830 830 830 830 830 829 829 829 829 829 828 827 827 825 826 831 835 834 832 830 828 826 823 822 821 820 820 819 819 819 819 819 820 824 825 825 828 828 828 831 833 832 831 833 834 834 834 834 833 831 834 839 839 834 837 842 840 843 847 848 854 857 856 859 860 860 862 863 865
833 833 832 832 833 834 834 833 832 832 833 833 833 832 832 831 831 830 830 830 830 831 830 829 829 829 828 829 828 828 828 826 826 830 834 834 833 831 830 828 826 824 823 822 821 821 820 820 820 820 820 822 828 827 826 830 831 832 834 832 831 834 835 837 839 838 838 839 835 835 841 841 837 839 841 838 841 844 843 850 854 855 859 861 862 864 865 867
834 833 833 833 834 834 834 833 833 834 834 834 834 833 833 832 831 830 830 831 831 831 830 829 828 828 828 827 827 828 827 827 832 837 837 834 833 832 830 829 827 825 824 823 822 822 821 822 821 822 822 825 830 829 830 834 834 834 835 833 835 839 837 838 843 842 843 844 840 839 841 840 840 842 841 840 838 837 840 846 849 852 857 861 863 866 867 868
834 834 833 833 834 835 834 833 834 834 834 834 834 834 833 832 832 831 831 831 831 831 830 830 829 829 828 825 826 827 827 832 840 840 837 835 834 832 831 830 828 826 825 823 823 822 822 822 822 823 824 827 830 830 834 839 837 835 837 838 839 841 838 840 844 846 848 846 843 841 839 839 842 843 843 842 838 838 847 852 851 853 858 862 865 867 869 870
834 834 834 834 835 835 834 834 834 835 835 835 835 835 834 833 832 831 832 832 832 831 831 831 830 830 829 826 827 826 829 840 845 840 838 836 834 833 832 831 829 827 826 824 824 823 823 822 822 826 827 830 834 834 836 840 839 834 837 841 842 844 842 843 846 849 851 846 842 841 841 842 841 843 847 848 849 852 856 857 856 858 863 865 867 868 870 871
834 833 834 835 834 834 834 834 835 835 836 835 835 835 834 834 833 832 833 833 833 832 831 831 830 830 830 829 828 828 833 843 846 842 839 836 835 834 832 832 830 829 827 825 824 824 824 823 824 829 829 832 836 837 839 840 838 834 836 841 844 847 845 846 849 850 851 846 845 845 843 842 840 842 849 856 862 863 861 861 862 863 866 868 869 871 872 873
833 833 834 835 834 834 834 835 836 836 836 836 836 835 835 835 834 834 833 834 834 833 831 830 830 830 829 829 828 831 839 846 846 842 840 837 836 835 833 833 831 829 827 826 826 825 826 827 829 831 831 835 837 838 841 839 836 836 839 842 845 847 846 847 849 848 850 848 848 847 841 842 844 845 853 864 867 866 865 865 866 867 869 871 872 874 875 876
833 834 834 834 834 834 835 836 836 836 836 836 836 836 836 836 836 835 835 835 834 833 832 830 830 829 829 830 826 833 846 849 847 844 840 838 837 836 834 833 831 830 829 828 829 826 827 831 832 831 832 838 839 839 842 837 837 842 843 844 844 845 847 847 846 846 848 848 847 844 839 844 851 850 858 870 869 868 869 868 869 870 872 874 876 878 879 879
835 835 835 835 835 835 836 836 836 836 836 836 837 837 837 837 837 836 836 835 835 835 833 831 831 830 829 829 827 839 852 850 847 844 840 839 838 837 835 834 833 832 832 831 831 830 830 832 834 832 832 838 840 842 844 840 842 847 848 848 847 846 848 847 845 847 848 847 849 845 840 847 852 848 857 871 871 870 871 870 873 873 875 878 879 881 882 882
836 835 835 835 835 836 836 836 837 837 837 837 837 837 837 837 837 837 836 836 836 835 834 834 833 831 831 829 833 847 853 849 848 844 841 840 838 837 836 836 835 834 834 834 834 834 834 835 835 834 835 839 842 844 847 847 848 850 849 849 848 845 846 847 845 848 847 846 849 847 844 848 851 851 861 872 872 872 873 873 875 876 878 880 881 883 884 885
836 835 835 835 835 836 836 837 837 837 837 837 838 838 838 838 838 838 837 837 837 835 836 834 833 833 830 832 843 853 852 849 848 845 843 841 839 839 838 838 837 836 836 836 837 837 836 837 836 836 841 842 843 844 848 851 851 850 848 845 844 839 841 847 847 848 847 846 848 847 843 844 854 863 868 873 873 874 875 875 877 879 881 882 884 885 886 887
836 836 836 836 836 837 836 837 837 837 838 838 838 838 838 838 838 838 837 837 837 836 837 835 834 833 830 839 852 854 851 850 847 845 843 841 841 841 840 840 839 838 838 837 839 838 838 838 837 840 845 843 844 848 849 852 851 849 850 847 844 841 840 843 848 850 847 848 849 847 841 840 859 871 871 874 875 876 876 878 880 881 883 885 886 887 888 890
837 836 836 836 837 837 837 837 837 838 838 838 839 838 839 839 839 839 838 838 837 837 837 836 836 833 834 846 854 852 852 851 846 845 843 842 842 841 841 841 840 840 839 839 840 840 840 839 838 841 846 846 848 851 848 849 848 847 851 849 847 849 845 840 849 852 849 851 849 849 843 839 860 873 871 876 875 876 878 880 883 884 886 887 888 890 890 892
837 837 837 837 837 837 837 837 838 839 838 839 839 839 840 839 839 839 838 838 838 838 838 836 836 835 840 849 853 852 851 848 847 847 846 844 842 842 842 840 841 841 840 840 840 841 841 839 841 844 848 850 848 846 844 844 847 849 852 852 850 853 849 843 852 856 853 854 848 850 846 839 858 873 871 875 876 877 880 882 885 886 888 889 890 891 891 893
837 837 837 837 838 837 838 838 838 839 839 839 839 840 840 840 840 840 839 839 838 838 838 838 838 836 843 852 852 852 851 849 849 850 848 845 844 844 842 840 841 841 841 842 841 842 841 841 848 853 852 850 848 845 840 841 846 851 855 858 856 856 853 846 851 859 859 856 849 851 850 842 857 872 872 875 876 878 881 884 887 888 890 891 891 892 892 893
837 837 838 838 838 838 838 838 839 839 840 840 840 841 841 841 841 840 840 840 840 840 838 840 840 837 846 853 853 854 855 854 853 851 848 846 846 845 842 841 842 841 841 841 841 842 842 845 853 855 853 854 855 847 841 849 854 853 856 860 860 860 859 852 850 856 858 857 851 850 849 847 860 872 873 875 877 879 883 885 888 889 891 891 892 892 892 893
838 838 838 839 839 839 839 839 840 840 841 842 842 842 842 842 841 840 841 840 840 839 838 841 839 841 852 856 858 860 858 857 855 851 848 847 846 845 844 844 842 841 841 841 844 844 845 849 852 853 855 860 862 854 854 868 870 865 865 865 864 862 861 857 853 854 857 859 855 850 848 850 863 873 875 876 878 880 883 886 888 890 891 892 893 893 893 894
839 839 839 839 840 840 840 841 841 841 842 842 842 843 842 843 842 841 842 841 843 846 850 853 851 854 862 862 863 862 859 858 855 851 849 847 847 846 846 846 845 843 842 845 849 853 853 852 854 858 863 869 873 871 872 878 878 876 874 873 873 865 859 858 855 856 862 861 853 851 850 853 865 874 877 879 879 881 884 886 889 891 892 893 893 894 894 894
839 839 839 840 840 841 841 842 842 842 842 842 843 842 842 844 845 850 852 850 855 861 863 864 863 863 865 865 864 860 859 858 855 854 851 848 848 847 846 847 845 845 852 858 859 860 859 858 865 872 875 879 883 884 883 882 882 880 874 872 870 864 861 859 855 857 864 863 853 850 852 856 869 876 879 881 881 883 886 887 890 892 893 894 894 894 894 894
840 840 841 841 842 843 842 842 843 842 842 842 842 842 843 844 847 855 860 861 865 866 865 866 866 865 866 867 865 862 861 857 856 857 855 852 849 847 850 851 848 851 863 871 867 862 860 865 876 883 885 888 889 889 888 883 880 876 871 869 866 864 864 860 858 858 861 863 855 850 850 856 872 879 880 883 882 885 886 888 892 893 894 894 894 895 894 894
841 841 842 842 843 843 843 843 843 843 843 842 841 842 845 845 846 850 853 860 867 867 866 868 867 867 868 867 866 864 861 859 858 858 858 855 850 852 857 857 858 864 868 869 864 858 861 872 883 889 892 893 890 888 884 878 873 869 868 869 868 867 864 858 857 858 861 862 854 852 853 857 872 880 880 883 884 887 889 889 893 894 895 895 894 895 894 893
842 842 843 843 844 843 844 843 843 843 843 842 842 843 845 846 847 848 848 855 866 868 868 867 867 868 867 866 867 864 863 868 868 864 863 859 857 862 864 863 865 868 869 866 860 859 867 877 886 894 895 889 884 882 880 874 868 867 870 874 874 873 871 865 858 856 859 860 856 856 854 855 873 880 881 887 887 890 892 892 895 896 896 896 894 895 894 893
843 843 843 844 844 844 844 843 843 843 843 843 843 844 846 847 848 848 851 858 865 867 868 868 868 869 869 869 869 867 868 875 876 872 870 866 865 867 869 872 869 865 874 876 867 868 877 886 892 895 892 883 876 875 878 876 868 869 876 881 879 876 876 872 864 859 854 854 860 859 846 845 864 874 880 888 890 892 894 894 897 897 896 896 894 894 893 892
843 843 843 844 844 844 844 844 844 844 844 844 844 846 847 848 849 848 851 860 865 866 868 868 868 869 871 870 869 871 871 874 878 877 875 873 871 870 872 877 872 866 877 881 872 871 879 892 895 889 884 879 874 873 880 883 873 869 878 884 883 877 875 870 865 863 853 849 858 858 850 846 849 862 878 887 891 894 896 896 896 896 895 894 893 892 891 890
843 843 844 843 843 844 844 844 845 844 845 845 846 848 847 848 849 848 851 860 866 869 869 867 868 871 871 872 872 872 870 873 880 880 877 876 876 874 872 876 876 873 880 882 876 875 882 891 891 884 879 876 873 874 882 888 876 869 877 883 881 877 873 868 867 869 862 855 856 856 860 857 843 853 877 886 892 897 897 898 895 893 895 893 892 891 889 888
843 843 843 843 844 844 843 844 844 844 845 846 847 847 848 849 848 848 853 862 870 874 872 868 870 874 874 876 874 871 873 877 879 879 879 878 877 875 873 877 877 877 886 883 872 878 885 885 885 883 877 874 876 877 882 888 881 874 878 880 879 875 869 868 870 868 862 857 854 852 861 862 849 860 884 887 892 899 897 896 894 891 893 892 891 890 888 886
842 843 842 843 843 842 843 843 843 845 844 845 847 847 849 849 848 850 855 869 878 876 875 874 873 876 878 880 877 876 883 886 880 880 882 879 878 875 874 882 882 880 887 879 870 884 891 886 888 885 878 878 882 882 884 888 884 877 879 879 877 871 866 869 869 863 861 861 856 850 859 866 857 865 886 888 891 898 895 894 894 892 893 892 891 890 887 884
842 842 842 842 842 842 843 843 843 844 844 846 847 847 849 848 849 852 858 874 881 877 878 878 875 879 883 882 883 886 889 889 887 886 884 881 880 877 879 887 887 883 884 878 878 891 894 892 896 890 884 886 887 884 885 888 885 880 880 877 871 867 865 868 866 859 858 863 860 853 860 871 864 864 880 886 891 899 895 893 894 893 893 892 891 888 885 883
842 842 842 842 842 842 843 843 844 844 845 846 847 848 849 848 852 858 865 877 881 880 882 880 881 889 888 883 885 891 892 892 896 892 886 885 883 881 885 889 886 883 881 879 882 891 896 898 899 894 890 892 891 887 887 890 887 880 876 871 865 863 862 864 866 865 862 861 859 856 860 869 868 871 882 890 897 901 897 895 895 894 893 891 889 887 884 881
843 842 842 842 842 843 843 844 844 845 846 846 847 848 848 851 857 862 873 883 882 883 884 886 893 897 895 891 891 895 895 895 899 895 888 888 886 883 884 888 887 879 874 877 879 885 894 893 892 896 897 896 892 887 888 891 886 879 873 869 866 862 860 860 861 869 874 867 857 854 860 867 867 874 888 897 900 900 898 899 897 895 892 889 887 885 882 880
843 842 842 842 842 843 843 844 845 846 846 847 848 848 850 858 864 872 882 884 882 887 891 894 899 899 901 899 898 901 900 896 899 901 899 896 897 899 898 902 901 883 873 884 885 879 885 890 892 897 899 898 890 881 882 884 881 879 875 876 881 880 881 880 870 870 874 867 857 856 865 870 867 875 892 897 897 898 898 898 896 894 891 888 887 884 881 880
844 844 843 843 843 843 843 845 846 846 847 848 848 849 854 859 871 888 892 883 886 897 901 902 903 903 901 894 897 905 903 900 901 903 906 901 900 906 908 913 913 896 884 892 894 883 881 887 893 893 893 896 892 884 885 886 884 886 887 892 900 907 917 914 894 883 877 865 858 861 872 874 866 876 893 894 893 896 897 896 895 893 891 888 886 883 881 880
846 845 845 844 844 844 845 846 847 847 848 848 848 853 857 863 881 897 893 887 897 903 904 907 903 900 899 895 903 908 900 901 905 903 902 899 897 903 907 911 915 912 902 898 905 904 889 883 888 891 892 893 895 897 898 896 894 895 895 897 901 911 928 925 905 901 897 876 861 868 880 877 872 881 890 890 892 895 895 894 893 891 889 887 885 882 881 879
848 847 846 846 845 846 847 847 847 848 847 848 852 856 860 872 887 892 889 894 902 901 904 909 901 892 894 899 909 912 902 899 905 906 903 903 905 910 915 917 918 921 910 898 909 913 893 883 891 896 898 897 899 904 904 899 897 895 892 897 902 904 911 913 906 907 907 884 864 869 876 869 873 886 888 889 892 893 892 892 891 889 886 885 883 881 880 878
848 848 847 847 847 847 847 847 848 848 849 850 852 861 873 885 890 891 896 902 902 901 901 900 896 890 888 894 902 907 906 903 903 903 906 913 915 916 922 924 924 927 917 907 916 915 894 882 888 896 899 902 904 903 903 901 896 893 897 903 905 904 905 907 901 891 891 884 869 871 874 867 873 885 886 890 891 887 890 890 888 887 884 883 882 880 880 879
848 848 848 849 849 848 848 849 849 848 849 850 856 874 891 898 899 902 907 909 908 908 897 889 896 898 893 894 896 899 903 902 900 897 901 910 914 919 925 925 928 931 926 921 921 922 913 892 887 896 896 900 909 905 903 907 901 899 909 908 903 906 905 906 907 895 890 890 879 877 885 880 879 883 882 887 890 888 889 889 886 885 882 882 881 880 880 879
848 848 848 849 849 849 849 848 849 850 850 857 873 891 900 902 907 911 913 912 910 907 896 889 900 907 903 898 897 904 906 896 895 898 899 902 909 921 926 923 927 932 932 930 919 922 927 901 887 901 902 898 906 904 899 905 905 904 910 910 909 913 905 905 920 916 905 905 894 883 887 884 880 884 884 886 891 890 888 886 885 883 882 882 881 879 880 879
847 847 849 851 850 850 849 849 851 850 848 862 882 894 899 905 912 915 916 915 909 902 896 896 904 907 908 905 902 910 913 902 899 902 900 900 907 921 928 925 926 930 932 932 921 922 929 910 891 899 903 897 897 896 895 900 905 905 907 913 917 919 915 918 927 924 919 923 911 894 891 885 878 880 884 888 891 889 888 887 885 884 883 883 881 880 880 878
847 847 851 853 850 850 851 849 851 853 857 874 890 896 901 907 912 917 919 915 909 903 898 901 905 903 906 913 911 912 916 913 909 904 902 907 911 918 929 930 927 929 933 933 928 925 926 918 900 890 893 893 891 895 897 899 906 908 909 919 923 920 918 918 921 925 930 931 924 917 908 890 876 878 885 888 889 888 889 888 886 885 884 883 883 883 881 878
847 848 851 853 851 852 850 851 864 876 880 889 896 899 904 906 908 915 920 918 913 908 905 905 904 903 905 909 911 914 916 914 914 910 908 911 910 912 927 935 930 931 932 927 926 927 923 920 911 898 890 885 889 904 906 901 908 911 912 921 927 925 920 918 922 928 933 932 932 936 925 894 876 879 885 886 887 888 889 888 887 885 884 883 884 883 881 879
847 851 854 852 851 851 850 862 886 895 890 892 897 900 904 905 906 911 915 916 913 909 908 908 907 908 909 908 911 917 915 911 913 912 911 913 913 915 929 940 938 936 931 923 927 933 928 924 921 909 893 886 896 912 911 906 911 913 916 922 926 927 927 927 928 926 929 931 928 932 925 895 873 875 881 884 887 889 889 889 888 885 884 884 883 883 881 880
850 853 854 852 852 851 852 869 891 897 895 901 905 905 906 906 906 909 911 910 909 906 905 907 909 909 910 912 914 915 913 911 912 912 913 916 919 927 938 944 941 937 931 924 928 934 930 927 922 902 883 888 907 916 915 916 914 910 916 924 926 930 934 934 934 935 937 932 924 928 920 889 867 870 877 881 885 888 888 889 887 884 884 884 883 882 881 880
853 854 855 853 851 850 851 863 881 894 901 903 902 904 907 907 907 908 907 906 907 906 901 905 912 910 912 918 916 914 913 909 909 915 918 917 922 934 943 944 939 933 928 924 927 931 924 917 913 898 885 889 899 903 906 910 906 904 918 932 934 936 939 936 940 947 941 924 921 927 912 879 866 871 875 880 885 887 888 888 887 885 884 883 882 881 881 880
853 854 856 855 852 853 858 867 874 886 897 896 896 902 903 905 910 911 908 908 912 910 903 907 913 913 917 920 916 917 919 911 909 916 922 921 925 935 941 941 938 933 932 934 934 930 923 916 912 908 905 903 899 895 895 896 898 903 916 933 939 940 939 935 935 939 930 918 920 923 902 875 867 872 875 880 884 886 886 885 884 885 884 883 881 880 881 880
849 852 855 856 857 861 871 879 876 878 888 887 889 902 902 901 909 914 911 909 912 914 909 910 916 914 915 916 911 913 918 918 916 916 918 919 922 932 939 939 940 937 935 939 937 931 928 924 917 911 912 912 906 901 896 896 903 906 910 922 936 944 945 939 932 925 921 919 915 907 896 882 874 873 876 881 885 886 885 884 883 883 883 882 881 881 882 881
849 854 861 860 860 865 873 880 878 877 883 881 884 898 901 900 906 910 909 910 911 914 911 912 916 910 907 910 908 908 915 920 918 915 918 922 924 931 937 938 939 939 937 937 936 931 925 919 919 920 917 911 907 904 902 905 908 909 911 920 931 941 944 941 933 922 921 925 908 889 891 893 883 877 879 883 887 887 886 886 885 884 883 882 882 882 882 881
853 861 872 867 863 868 872 876 881 882 883 884 893 901 899 899 902 901 903 910 912 912 908 906 911 910 908 909 903 903 911 914 911 915 921 925 927 927 930 934 935 935 935 934 933 933 923 916 926 932 921 914 914 909 905 908 910 910 914 918 923 932 936 936 933 924 923 926 910 889 893 896 886 880 883 887 889 889 888 887 886 884 883 882 882 882 881 880
861 865 875 874 872 880 885 884 885 882 881 887 894 899 896 893 896 901 907 907 906 910 908 899 902 910 914 914 906 901 906 903 901 911 918 921 926 925 923 925 929 933 934 930 933 938 926 918 931 939 928 918 912 906 906 910 912 912 914 914 916 922 927 928 927 921 918 917 907 896 897 895 887 884 887 888 888 889 888 886 885 884 882 882 883 882 881 880
855 855 866 872 877 888 892 889 884 876 882 888 887 893 898 891 891 902 910 903 896 903 908 899 901 912 917 917 910 903 905 903 900 909 916 916 920 922 918 915 922 932 933 929 935 939 927 921 935 945 932 911 902 905 908 908 909 910 911 912 916 919 921 921 920 916 915 911 904 901 900 892 885 886 888 888 888 887 886 885 884 882 881 882 882 881 880 879
850 851 855 858 872 888 888 888 886 875 877 884 882 891 898 890 890 898 904 909 904 900 905 902 902 914 920 918 913 907 909 913 909 911 916 914 913 916 917 916 920 926 928 931 936 935 928 926 935 942 925 899 896 904 902 906 918 921 916 913 915 917 915 913 911 909 908 907 903 903 900 887 881 885 888 887 887 886 885 885 884 881 881 882 882 881 880 878
851 853 853 851 867 889 889 885 886 876 874 884 887 893 895 891 896 896 892 906 915 909 911 910 905 910 913 911 911 911 913 917 917 917 920 919 918 920 920 921 922 922 924 931 937 938 935 927 928 936 920 892 889 898 902 908 909 899 898 901 903 908 908 903 901 898 898 902 904 901 894 886 884 888 887 885 885 886 886 885 884 882 882 883 883 882 880 878